ANA476 ROAH-RJTT

Flight info

Callsign ANA476
Flight time 2h 5m
Altitude 37000
Route AMAMI Y574 SHIBK Y57 SUKBO Y571 BILLY Y21 AKSEL
Aircraft A321/M-SDE3FGHIRWY/LB1

Departure

Time 2026-04-10 05:37
Airport Naha International Airport (ROAH)

Arrival

Time 2026-04-10 07:42
Airport Tokyo Haneda International Airport (RJTT)
Time Latitude Longitude Altitude Speed Heading
2026-04-10 05:03 26.20707 127.64919 22 ft 0 kts 28°
2026-04-10 05:29 26.20706 127.64918 21 ft 1 kts 28°
2026-04-10 05:29 26.20689 127.64905 22 ft 3 kts 31°
2026-04-10 05:29 26.20668 127.64895 21 ft 4 kts 351°
2026-04-10 05:30 26.20646 127.64907 21 ft 4 kts 308°
2026-04-10 05:30 26.20636 127.64931 21 ft 2 kts 269°
2026-04-10 05:30 26.20637 127.64955 21 ft 4 kts 268°
2026-04-10 05:30 26.20637 127.64961 21 ft 0 kts 268°
2026-04-10 05:33 26.20637 127.64959 21 ft 2 kts 268°
2026-04-10 05:33 26.20636 127.64925 23 ft 7 kts 267°
2026-04-10 05:34 26.20633 127.64844 20 ft 12 kts 268°
2026-04-10 05:34 26.20655 127.64756 17 ft 12 kts 318°
2026-04-10 05:34 26.20734 127.64740 17 ft 11 kts 358°
2026-04-10 05:34 26.20803 127.64736 17 ft 9 kts 358°
2026-04-10 05:35 26.20868 127.64732 17 ft 9 kts 348°
2026-04-10 05:35 26.20902 127.64687 18 ft 9 kts 281°
2026-04-10 05:35 26.20900 127.64615 16 ft 10 kts 267°
2026-04-10 05:35 26.20896 127.64541 18 ft 6 kts 255°
2026-04-10 05:36 26.20869 127.64526 18 ft 3 kts 185°
2026-04-10 05:36 26.20853 127.64527 19 ft 1 kts 176°
2026-04-10 05:36 26.20789 127.64530 18 ft 30 kts 178°
2026-04-10 05:36 26.20339 127.64551 18 ft 97 kts 178°
2026-04-10 05:37 26.19478 127.64592 16 ft 148 kts 178°
2026-04-10 05:37 26.18334 127.64641 138 ft 177 kts 179°
2026-04-10 05:37 26.17128 127.64695 896 ft 171 kts 179°
2026-04-10 05:37 26.15948 127.64754 1608 ft 169 kts 179°
2026-04-10 05:38 26.14757 127.64813 2027 ft 177 kts 181°
2026-04-10 05:38 26.13468 127.64876 2175 ft 194 kts 181°
2026-04-10 05:38 26.12052 127.64941 2314 ft 213 kts 181°
2026-04-10 05:38 26.10498 127.65008 2502 ft 234 kts 180°
2026-04-10 05:39 26.08826 127.65079 3042 ft 244 kts 182°
2026-04-10 05:39 26.07145 127.65151 3776 ft 247 kts 182°
2026-04-10 05:39 26.05412 127.65233 4462 ft 252 kts 181°
2026-04-10 05:39 26.03644 127.65427 5078 ft 262 kts 168°
2026-04-10 05:40 26.02025 127.66457 5659 ft 280 kts 138°
2026-04-10 05:40 26.01047 127.68362 6225 ft 296 kts 105°
2026-04-10 05:40 26.00922 127.70669 6770 ft 303 kts 91°
2026-04-10 05:40 26.01202 127.73012 7328 ft 309 kts 74°
2026-04-10 05:41 26.02057 127.75211 7914 ft 312 kts 58°
2026-04-10 05:41 26.03351 127.77148 8466 ft 314 kts 49°
2026-04-10 05:41 26.04736 127.79002 8997 ft 317 kts 49°
2026-04-10 05:41 26.06136 127.80907 9514 ft 320 kts 49°
2026-04-10 05:42 26.07542 127.82837 10077 ft 322 kts 50°
2026-04-10 05:42 26.08977 127.84814 10281 ft 338 kts 50°
2026-04-10 05:42 26.10492 127.86907 10410 ft 355 kts 50°
2026-04-10 05:42 26.12077 127.89095 10541 ft 372 kts 50°
2026-04-10 05:43 26.13742 127.91379 10662 ft 388 kts 50°
2026-04-10 05:43 26.15476 127.93748 10810 ft 402 kts 48°
2026-04-10 05:43 26.17466 127.95927 10979 ft 412 kts 37°
2026-04-10 05:43 26.19845 127.97719 11359 ft 415 kts 28°
2026-04-10 05:44 26.22328 127.99386 11837 ft 418 kts 28°
2026-04-10 05:44 26.24820 128.01070 12334 ft 421 kts 28°
2026-04-10 05:44 26.27332 128.02771 12806 ft 424 kts 28°
2026-04-10 05:44 26.29862 128.04488 13243 ft 428 kts 28°
2026-04-10 05:45 26.32414 128.06217 13666 ft 431 kts 28°
2026-04-10 05:45 26.34990 128.07958 14085 ft 434 kts 28°
2026-04-10 05:45 26.37546 128.09688 14465 ft 437 kts 28°
2026-04-10 05:45 26.40149 128.11453 14819 ft 440 kts 28°
2026-04-10 05:46 26.42775 128.13236 15193 ft 444 kts 28°
2026-04-10 05:46 26.45421 128.15035 15555 ft 447 kts 28°
2026-04-10 05:46 26.48084 128.16846 15912 ft 450 kts 28°
2026-04-10 05:46 26.50771 128.18667 16286 ft 453 kts 28°
2026-04-10 05:47 26.53471 128.20499 16643 ft 456 kts 28°
2026-04-10 05:47 26.56188 128.22345 16958 ft 459 kts 28°
2026-04-10 05:47 26.58922 128.24205 17291 ft 463 kts 28°
2026-04-10 05:47 26.61641 128.26058 17637 ft 465 kts 28°
2026-04-10 05:48 26.64407 128.27943 17953 ft 468 kts 28°
2026-04-10 05:48 26.67136 128.29962 18270 ft 473 kts 34°
2026-04-10 05:48 26.69610 128.32421 18575 ft 479 kts 43°
2026-04-10 05:48 26.71784 128.35272 18891 ft 484 kts 50°
2026-04-10 05:49 26.73880 128.38234 19207 ft 486 kts 49°
2026-04-10 05:49 26.75992 128.41202 19532 ft 489 kts 49°
2026-04-10 05:49 26.78121 128.44184 19809 ft 491 kts 49°
2026-04-10 05:49 26.80227 128.47135 20074 ft 494 kts 49°
2026-04-10 05:50 26.82380 128.50152 20373 ft 496 kts 49°
2026-04-10 05:50 26.84531 128.53179 20663 ft 498 kts 49°
2026-04-10 05:50 26.86689 128.56223 20938 ft 501 kts 49°
2026-04-10 05:50 26.88858 128.59293 21194 ft 503 kts 49°
2026-04-10 05:51 26.91071 128.62330 21446 ft 504 kts 44°
2026-04-10 05:51 26.93589 128.65051 21714 ft 502 kts 36°
2026-04-10 05:51 26.96396 128.67346 21985 ft 498 kts 27°
2026-04-10 05:51 26.99415 128.69240 22237 ft 498 kts 23°
2026-04-10 05:52 27.02469 128.71078 22497 ft 499 kts 23°
2026-04-10 05:52 27.05498 128.72911 22740 ft 502 kts 23°
2026-04-10 05:52 27.08570 128.74775 22995 ft 503 kts 23°
2026-04-10 05:52 27.10653 128.76040 23150 ft 505 kts 23°
2026-04-10 05:53 27.13357 128.77680 23356 ft 506 kts 23°
2026-04-10 05:53 27.16461 128.79568 23577 ft 508 kts 23°
2026-04-10 05:53 27.19568 128.81458 23819 ft 509 kts 23°
2026-04-10 05:53 27.22685 128.83358 24029 ft 511 kts 23°
2026-04-10 05:54 27.25821 128.85278 24243 ft 513 kts 23°
2026-04-10 05:54 27.28958 128.87197 24458 ft 515 kts 23°
2026-04-10 05:54 27.32068 128.89097 24679 ft 516 kts 23°
2026-04-10 05:54 27.35228 128.91025 24900 ft 518 kts 23°
2026-04-10 05:55 27.38400 128.92958 25109 ft 519 kts 23°
2026-04-10 05:55 27.41584 128.94897 25305 ft 521 kts 22°
2026-04-10 05:55 27.44772 128.96843 25502 ft 523 kts 23°
2026-04-10 05:55 27.47978 128.98806 25693 ft 524 kts 23°
2026-04-10 05:56 27.51180 129.00771 25970 ft 524 kts 23°
2026-04-10 05:56 27.54376 129.02736 26253 ft 523 kts 23°
2026-04-10 05:56 27.57523 129.04668 26530 ft 522 kts 22°
2026-04-10 05:56 27.60711 129.06621 26787 ft 522 kts 22°
2026-04-10 05:57 27.63904 129.08575 27050 ft 521 kts 22°
2026-04-10 05:57 27.67092 129.10528 27290 ft 521 kts 22°
2026-04-10 05:57 27.70280 129.12485 27524 ft 522 kts 23°
2026-04-10 05:57 27.73467 129.14446 27772 ft 521 kts 23°
2026-04-10 05:58 27.76651 129.16409 28033 ft 521 kts 23°
2026-04-10 05:58 27.79784 129.18340 28290 ft 520 kts 23°
2026-04-10 05:58 27.82960 129.20299 28536 ft 520 kts 23°
2026-04-10 05:58 27.86133 129.22256 28781 ft 519 kts 23°
2026-04-10 05:59 27.89306 129.24216 29023 ft 519 kts 22°
2026-04-10 05:59 27.92472 129.26173 29259 ft 519 kts 22°
2026-04-10 05:59 27.95638 129.28130 29506 ft 518 kts 22°
2026-04-10 05:59 27.98797 129.30086 29754 ft 518 kts 22°
2026-04-10 06:00 28.01960 129.32041 29986 ft 517 kts 22°
2026-04-10 06:00 28.05121 129.33995 30138 ft 519 kts 22°
2026-04-10 06:00 28.08256 129.35936 30321 ft 520 kts 22°
2026-04-10 06:00 28.11430 129.37902 30549 ft 520 kts 22°
2026-04-10 06:01 28.14199 129.39622 30757 ft 520 kts 22°
2026-04-10 06:01 28.17373 129.41592 31004 ft 519 kts 22°
2026-04-10 06:01 28.20541 129.43559 31282 ft 519 kts 22°
2026-04-10 06:01 28.23699 129.45520 31608 ft 517 kts 22°
2026-04-10 06:02 28.26844 129.47476 31877 ft 516 kts 22°
2026-04-10 06:02 28.29997 129.49445 32144 ft 515 kts 22°
2026-04-10 06:02 28.33134 129.51407 32437 ft 514 kts 22°
2026-04-10 06:02 28.36201 129.53378 32680 ft 517 kts 26°
2026-04-10 06:03 28.39078 129.55873 32910 ft 526 kts 37°
2026-04-10 06:03 28.41563 129.58957 33131 ft 533 kts 50°
2026-04-10 06:03 28.43544 129.62531 33357 ft 538 kts 62°
2026-04-10 06:03 28.44939 129.66473 33580 ft 540 kts 73°
2026-04-10 06:04 28.45709 129.70646 33804 ft 540 kts 83°
2026-04-10 06:04 28.46179 129.74883 34010 ft 539 kts 83°
2026-04-10 06:04 28.46641 129.79108 34228 ft 539 kts 83°
2026-04-10 06:04 28.47091 129.83273 34452 ft 538 kts 83°
2026-04-10 06:05 28.47546 129.87492 34672 ft 538 kts 83°
2026-04-10 06:05 28.47998 129.91710 34877 ft 537 kts 83°
2026-04-10 06:05 28.48449 129.95921 35080 ft 536 kts 83°
2026-04-10 06:05 28.48900 130.00131 35271 ft 536 kts 83°
2026-04-10 06:06 28.49346 130.04328 35467 ft 536 kts 83°
2026-04-10 06:06 28.50706 130.12561 35858 ft 532 kts 70°
2026-04-10 06:06 28.52063 130.16463 36035 ft 529 kts 61°
2026-04-10 06:07 28.53855 130.20088 36197 ft 525 kts 52°
2026-04-10 06:07 28.55930 130.23505 36344 ft 524 kts 51°
2026-04-10 06:07 28.58005 130.26910 36472 ft 524 kts 51°
2026-04-10 06:07 28.60074 130.30323 36615 ft 524 kts 51°
2026-04-10 06:08 28.62134 130.33738 36808 ft 523 kts 52°
2026-04-10 06:08 28.66203 130.40503 36887 ft 521 kts 52°
2026-04-10 06:09 28.70310 130.47324 36889 ft 523 kts 51°
2026-04-10 06:09 28.74425 130.54160 36888 ft 523 kts 51°
2026-04-10 06:10 28.78544 130.61003 36877 ft 524 kts 51°
2026-04-10 06:10 28.82639 130.67807 36881 ft 523 kts 51°
2026-04-10 06:11 28.86750 130.74660 36878 ft 524 kts 51°
2026-04-10 06:11 28.90861 130.81532 36880 ft 524 kts 52°
2026-04-10 06:12 28.94973 130.88409 36879 ft 525 kts 52°
2026-04-10 06:12 28.99086 130.95296 36881 ft 524 kts 52°
2026-04-10 06:13 29.03164 131.02131 36874 ft 525 kts 52°
2026-04-10 06:13 29.07267 131.09040 36868 ft 525 kts 52°
2026-04-10 06:14 29.11368 131.15952 36863 ft 525 kts 52°
2026-04-10 06:14 29.15477 131.22868 36859 ft 526 kts 52°
2026-04-10 06:15 29.19552 131.29752 36856 ft 526 kts 52°
2026-04-10 06:15 29.23652 131.36695 36853 ft 527 kts 52°
2026-04-10 06:16 29.27760 131.43648 36850 ft 527 kts 52°
2026-04-10 06:16 29.31854 131.50602 36851 ft 527 kts 52°
2026-04-10 06:17 29.35950 131.57573 36845 ft 527 kts 52°
2026-04-10 06:17 29.40017 131.64500 36847 ft 527 kts 52°
2026-04-10 06:18 29.44111 131.71492 36841 ft 528 kts 52°
2026-04-10 06:18 29.48200 131.78492 36832 ft 528 kts 52°
2026-04-10 06:19 29.52283 131.85492 36830 ft 528 kts 52°
2026-04-10 06:19 29.56351 131.92460 36830 ft 529 kts 52°
2026-04-10 06:20 29.60442 131.99486 36834 ft 529 kts 52°
2026-04-10 06:20 29.64522 132.06529 36833 ft 530 kts 52°
2026-04-10 06:21 29.69030 132.13153 36832 ft 525 kts 45°
2026-04-10 06:21 29.73670 132.19644 36832 ft 525 kts 45°
2026-04-10 06:22 29.78284 132.26106 36824 ft 526 kts 45°
2026-04-10 06:22 29.82913 132.32620 36829 ft 525 kts 45°
2026-04-10 06:23 29.87533 132.39137 36834 ft 525 kts 45°
2026-04-10 06:23 29.92151 132.45661 36831 ft 525 kts 45°
2026-04-10 06:24 29.96730 132.52127 36828 ft 524 kts 45°
2026-04-10 06:24 30.01345 132.58644 36822 ft 524 kts 45°
2026-04-10 06:25 30.05950 132.65171 36806 ft 525 kts 46°
2026-04-10 06:25 30.10547 132.71710 36807 ft 525 kts 45°
2026-04-10 06:26 30.15119 132.78225 36804 ft 526 kts 45°
2026-04-10 06:26 30.19717 132.84778 36813 ft 526 kts 46°
2026-04-10 06:27 30.24322 132.91352 36816 ft 526 kts 46°
2026-04-10 06:27 30.28930 132.97935 36818 ft 526 kts 45°
2026-04-10 06:28 30.33501 133.04481 36830 ft 526 kts 46°
2026-04-10 06:28 30.38099 133.11076 36819 ft 526 kts 46°
2026-04-10 06:29 30.42689 133.17679 36816 ft 526 kts 46°
2026-04-10 06:29 30.47275 133.24274 36788 ft 526 kts 46°
2026-04-10 06:30 30.51855 133.30859 36752 ft 524 kts 45°
2026-04-10 06:30 30.56391 133.37405 36743 ft 524 kts 46°
2026-04-10 06:31 30.60950 133.44016 36744 ft 524 kts 46°
2026-04-10 06:31 30.65501 133.50624 36748 ft 524 kts 46°
2026-04-10 06:32 30.70036 133.57199 36750 ft 524 kts 46°
2026-04-10 06:32 30.74597 133.63819 36749 ft 525 kts 46°
2026-04-10 06:33 30.79155 133.70458 36749 ft 525 kts 46°
2026-04-10 06:33 30.83707 133.77101 36752 ft 525 kts 46°
2026-04-10 06:34 30.88235 133.83705 36752 ft 525 kts 46°
2026-04-10 06:34 30.92781 133.90349 36747 ft 525 kts 46°
2026-04-10 06:35 30.97323 133.97017 36743 ft 525 kts 46°
2026-04-10 06:35 31.01868 134.03685 36747 ft 525 kts 45°
2026-04-10 06:36 31.06407 134.10357 36758 ft 525 kts 45°
2026-04-10 06:36 31.10919 134.16988 36757 ft 525 kts 45°
2026-04-10 06:37 31.15459 134.23683 36754 ft 526 kts 45°
2026-04-10 06:37 31.19992 134.30390 36753 ft 526 kts 46°
2026-04-10 06:38 31.24520 134.37111 36752 ft 526 kts 46°
2026-04-10 06:38 31.29024 134.43784 36753 ft 526 kts 45°
2026-04-10 06:39 31.33555 134.50505 36754 ft 526 kts 46°
2026-04-10 06:39 31.38083 134.57243 36756 ft 527 kts 46°
2026-04-10 06:40 31.42611 134.63996 36758 ft 527 kts 46°
2026-04-10 06:40 31.47103 134.70706 36754 ft 526 kts 46°
2026-04-10 06:41 31.51618 134.77456 36752 ft 526 kts 46°
2026-04-10 06:41 31.56129 134.84213 36749 ft 526 kts 46°
2026-04-10 06:42 31.60631 134.90973 36747 ft 526 kts 46°
2026-04-10 06:42 31.65096 134.97684 36747 ft 525 kts 46°
2026-04-10 06:43 31.69587 135.04450 36746 ft 525 kts 46°
2026-04-10 06:43 31.74150 135.11130 36749 ft 522 kts 43°
2026-04-10 06:44 31.79006 135.17431 36749 ft 519 kts 39°
2026-04-10 06:44 31.83915 135.23562 36751 ft 518 kts 40°
2026-04-10 06:45 31.88791 135.29813 36750 ft 519 kts 41°
2026-04-10 06:45 31.93606 135.36146 36748 ft 518 kts 41°
2026-04-10 06:46 31.98400 135.42482 36733 ft 518 kts 41°
2026-04-10 06:46 32.03172 135.48767 36720 ft 518 kts 41°
2026-04-10 06:47 32.07985 135.55097 36719 ft 518 kts 41°
2026-04-10 06:47 32.12808 135.61428 36717 ft 519 kts 41°
2026-04-10 06:48 32.17619 135.67760 36802 ft 518 kts 41°
2026-04-10 06:48 32.22396 135.74069 36822 ft 519 kts 41°
2026-04-10 06:49 32.27197 135.80434 36826 ft 519 kts 41°
2026-04-10 06:49 32.31994 135.86802 36825 ft 518 kts 41°
2026-04-10 06:50 32.36789 135.93165 36824 ft 518 kts 41°
2026-04-10 06:50 32.41581 135.99534 36825 ft 518 kts 41°
2026-04-10 06:51 32.46334 136.05874 36832 ft 518 kts 41°
2026-04-10 06:51 32.51110 136.12243 36837 ft 517 kts 41°
2026-04-10 06:52 32.55883 136.18625 36840 ft 517 kts 41°
2026-04-10 06:52 32.60640 136.25005 36842 ft 516 kts 41°
2026-04-10 06:53 32.65405 136.31376 36838 ft 516 kts 41°
2026-04-10 06:53 32.70137 136.37711 36843 ft 516 kts 41°
2026-04-10 06:54 32.74885 136.44102 36843 ft 516 kts 41°
2026-04-10 06:54 32.79630 136.50504 36846 ft 516 kts 41°
2026-04-10 06:55 32.84339 136.56864 36850 ft 516 kts 41°
2026-04-10 06:55 32.89077 136.63275 36856 ft 516 kts 41°
2026-04-10 06:56 32.93814 136.69681 36862 ft 516 kts 41°
2026-04-10 06:56 32.98554 136.76093 36755 ft 514 kts 41°
2026-04-10 06:57 33.03247 136.82459 36873 ft 515 kts 41°
2026-04-10 06:57 33.07971 136.88886 36923 ft 516 kts 41°
2026-04-10 06:58 33.12697 136.95327 36938 ft 516 kts 42°
2026-04-10 06:58 33.17423 137.01777 36944 ft 516 kts 41°
2026-04-10 06:59 33.22110 137.08182 36944 ft 516 kts 42°
2026-04-10 06:59 33.26822 137.14637 36943 ft 516 kts 42°
2026-04-10 07:00 33.31531 137.21100 36941 ft 515 kts 42°
2026-04-10 07:00 33.36239 137.27570 36938 ft 516 kts 42°
2026-04-10 07:01 33.40939 137.34053 36931 ft 516 kts 42°
2026-04-10 07:01 33.45614 137.40495 36922 ft 516 kts 42°
2026-04-10 07:02 33.50316 137.47002 36917 ft 517 kts 42°
2026-04-10 07:02 33.55014 137.53518 36914 ft 516 kts 42°
2026-04-10 07:03 33.59709 137.60041 36910 ft 518 kts 44°
2026-04-10 07:03 33.63596 137.67351 36892 ft 528 kts 56°
2026-04-10 07:04 33.67126 137.75082 36880 ft 528 kts 56°
2026-04-10 07:04 33.70663 137.82808 36871 ft 529 kts 56°
2026-04-10 07:05 33.74206 137.90553 36859 ft 529 kts 56°
2026-04-10 07:05 33.77711 137.98251 36848 ft 529 kts 57°
2026-04-10 07:06 33.81237 138.06014 36844 ft 529 kts 56°
2026-04-10 07:06 33.84759 138.13781 36825 ft 529 kts 57°
2026-04-10 07:07 33.88274 138.21559 36817 ft 529 kts 57°
2026-04-10 07:07 33.91761 138.29277 36718 ft 528 kts 57°
2026-04-10 07:08 33.95245 138.37068 36702 ft 528 kts 57°
2026-04-10 07:08 33.98704 138.44866 36697 ft 529 kts 57°
2026-04-10 07:09 34.02209 138.52769 36540 ft 540 kts 57°
2026-04-10 07:09 34.03977 138.56768 35995 ft 539 kts 58°
2026-04-10 07:09 34.05710 138.60693 35363 ft 537 kts 58°
2026-04-10 07:09 34.07459 138.64661 34656 ft 535 kts 58°
2026-04-10 07:10 34.09204 138.68617 33644 ft 534 kts 58°
2026-04-10 07:10 34.10953 138.72575 32603 ft 534 kts 59°
2026-04-10 07:10 34.12697 138.76527 31504 ft 534 kts 59°
2026-04-10 07:10 34.14442 138.80490 30360 ft 534 kts 60°
2026-04-10 07:11 34.16181 138.84447 29145 ft 533 kts 60°
2026-04-10 07:11 34.17920 138.88408 27847 ft 535 kts 60°
2026-04-10 07:11 34.19666 138.92383 26485 ft 536 kts 61°
2026-04-10 07:11 34.21410 138.96357 25059 ft 537 kts 61°
2026-04-10 07:12 34.23135 139.00293 23554 ft 537 kts 62°
2026-04-10 07:12 34.24881 139.04281 22170 ft 535 kts 62°
2026-04-10 07:12 34.26604 139.08233 20884 ft 529 kts 62°
2026-04-10 07:12 34.28297 139.12155 19618 ft 523 kts 64°
2026-04-10 07:13 34.29757 139.16143 18385 ft 516 kts 66°
2026-04-10 07:13 34.31149 139.20114 17189 ft 509 kts 67°
2026-04-10 07:13 34.32503 139.24068 16164 ft 508 kts 68°
2026-04-10 07:13 34.33837 139.28003 15524 ft 502 kts 68°
2026-04-10 07:14 34.35155 139.31883 14846 ft 497 kts 68°
2026-04-10 07:14 34.36462 139.35724 14153 ft 492 kts 68°
2026-04-10 07:14 34.37746 139.39484 13471 ft 487 kts 67°
2026-04-10 07:14 34.39035 139.43248 12797 ft 482 kts 67°
2026-04-10 07:15 34.40312 139.46969 12239 ft 474 kts 68°
2026-04-10 07:15 34.41574 139.50642 12038 ft 470 kts 67°
2026-04-10 07:15 34.42827 139.54297 12095 ft 470 kts 67°
2026-04-10 07:15 34.44077 139.57952 12098 ft 471 kts 67°
2026-04-10 07:16 34.45330 139.61614 12094 ft 470 kts 67°
2026-04-10 07:16 34.46578 139.65270 12103 ft 469 kts 68°
2026-04-10 07:16 34.47977 139.68783 12104 ft 469 kts 57°
2026-04-10 07:16 34.49931 139.71880 12114 ft 452 kts 43°
2026-04-10 07:17 34.52242 139.74297 12120 ft 426 kts 30°
2026-04-10 07:17 34.54691 139.76138 12123 ft 405 kts 25°
2026-04-10 07:17 34.57048 139.77869 12132 ft 387 kts 25°
2026-04-10 07:17 34.59299 139.79528 12139 ft 370 kts 25°
2026-04-10 07:18 34.61450 139.81119 12144 ft 354 kts 25°
2026-04-10 07:18 34.63512 139.82647 12149 ft 339 kts 24°
2026-04-10 07:18 34.65491 139.84106 12181 ft 329 kts 24°
2026-04-10 07:18 34.67453 139.85492 12240 ft 323 kts 17°
2026-04-10 07:19 34.69511 139.86337 12251 ft 313 kts
2026-04-10 07:19 34.71617 139.87010 12249 ft 314 kts
2026-04-10 07:19 34.73726 139.87690 12250 ft 314 kts
2026-04-10 07:19 34.75836 139.88376 12256 ft 314 kts
2026-04-10 07:20 34.77943 139.89065 12249 ft 314 kts
2026-04-10 07:20 34.80052 139.89757 12237 ft 314 kts
2026-04-10 07:20 34.82163 139.90449 12226 ft 314 kts
2026-04-10 07:20 34.84313 139.91141 12229 ft 329 kts
2026-04-10 07:21 34.86522 139.91849 12233 ft 335 kts
2026-04-10 07:21 34.88763 139.92737 12233 ft 345 kts 18°
2026-04-10 07:21 34.90813 139.94339 12238 ft 357 kts 35°
2026-04-10 07:21 34.92695 139.96322 12233 ft 358 kts 36°
2026-04-10 07:22 34.94577 139.98305 12235 ft 358 kts 36°
2026-04-10 07:22 34.96465 140.00287 12234 ft 358 kts 36°
2026-04-10 07:22 34.98352 140.02263 12241 ft 357 kts 36°
2026-04-10 07:22 35.00337 140.04031 12247 ft 350 kts 22°
2026-04-10 07:23 35.02498 140.05215 11969 ft 342 kts 13°
2026-04-10 07:23 35.04708 140.06262 11740 ft 341 kts 13°
2026-04-10 07:23 35.06919 140.07316 11504 ft 340 kts 13°
2026-04-10 07:23 35.09119 140.08370 11272 ft 339 kts 14°
2026-04-10 07:24 35.11315 140.09423 11065 ft 339 kts 14°
2026-04-10 07:24 35.13504 140.10474 10827 ft 339 kts 14°
2026-04-10 07:24 35.15699 140.11527 10594 ft 338 kts 14°
2026-04-10 07:24 35.17887 140.12579 10355 ft 337 kts 15°
2026-04-10 07:25 35.20066 140.13627 10123 ft 336 kts 15°
2026-04-10 07:25 35.22202 140.14661 9889 ft 335 kts 15°
2026-04-10 07:25 35.24375 140.15712 9663 ft 336 kts 15°
2026-04-10 07:25 35.26545 140.16759 9433 ft 335 kts 15°
2026-04-10 07:26 35.28713 140.17805 9188 ft 335 kts 15°
2026-04-10 07:26 35.30883 140.18852 8957 ft 335 kts 15°
2026-04-10 07:26 35.33048 140.19899 8723 ft 334 kts 15°
2026-04-10 07:26 35.35205 140.20946 8483 ft 333 kts 14°
2026-04-10 07:27 35.37416 140.21609 8249 ft 322 kts 356°
2026-04-10 07:27 35.39600 140.21554 8026 ft 310 kts 344°
2026-04-10 07:27 35.41427 140.21202 7860 ft 306 kts 339°
2026-04-10 07:27 35.43458 140.20667 7655 ft 304 kts 339°
2026-04-10 07:28 35.44384 140.20444 7568 ft 302 kts 339°
2026-04-10 07:28 35.46464 140.19982 7346 ft 304 kts 341°
2026-04-10 07:28 35.48544 140.19550 7129 ft 304 kts 340°
2026-04-10 07:28 35.50629 140.19123 6923 ft 303 kts 340°
2026-04-10 07:29 35.52706 140.18695 6705 ft 301 kts 340°
2026-04-10 07:29 35.54761 140.18260 6496 ft 300 kts 340°
2026-04-10 07:29 35.56789 140.17822 6285 ft 299 kts 339°
2026-04-10 07:29 35.58830 140.17379 6076 ft 298 kts 339°
2026-04-10 07:30 35.60874 140.16934 5874 ft 297 kts 339°
2026-04-10 07:30 35.62909 140.16491 5659 ft 298 kts 340°
2026-04-10 07:30 35.64953 140.16045 5428 ft 298 kts 340°
2026-04-10 07:30 35.66963 140.15488 5226 ft 293 kts 333°
2026-04-10 07:31 35.68847 140.14624 5191 ft 283 kts 325°
2026-04-10 07:31 35.70590 140.13644 5209 ft 270 kts 324°
2026-04-10 07:31 35.72248 140.12717 5226 ft 261 kts 324°
2026-04-10 07:31 35.73859 140.11819 5279 ft 246 kts 323°
2026-04-10 07:32 35.75385 140.10962 5277 ft 238 kts 322°
2026-04-10 07:32 35.76874 140.10112 5287 ft 236 kts 322°
2026-04-10 07:32 35.78368 140.09256 5303 ft 237 kts 322°
2026-04-10 07:32 35.79842 140.08376 5316 ft 230 kts 314°
2026-04-10 07:33 35.80963 140.07137 5338 ft 208 kts 292°
2026-04-10 07:33 35.81589 140.05651 5339 ft 191 kts 275°
2026-04-10 07:33 35.81781 140.04097 5344 ft 179 kts 259°
2026-04-10 07:33 35.81596 140.02620 5345 ft 171 kts 245°
2026-04-10 07:34 35.81125 140.01286 5350 ft 170 kts 240°
2026-04-10 07:34 35.80625 139.99969 5351 ft 169 kts 240°
2026-04-10 07:34 35.80129 139.98653 5354 ft 170 kts 241°
2026-04-10 07:34 35.79524 139.97415 5307 ft 169 kts 226°
2026-04-10 07:35 35.78594 139.96534 5156 ft 169 kts 218°
2026-04-10 07:35 35.77647 139.95720 4957 ft 167 kts 217°
2026-04-10 07:35 35.76715 139.94919 4760 ft 159 kts 217°
2026-04-10 07:35 35.75846 139.94169 4553 ft 147 kts 217°
2026-04-10 07:36 35.75019 139.93455 4347 ft 144 kts 216°
2026-04-10 07:36 35.74206 139.92753 4172 ft 143 kts 215°
2026-04-10 07:36 35.73396 139.92053 3982 ft 142 kts 214°
2026-04-10 07:36 35.72588 139.91353 3793 ft 142 kts 214°
2026-04-10 07:37 35.71787 139.90663 3606 ft 140 kts 213°
2026-04-10 07:37 35.70990 139.89975 3421 ft 140 kts 213°
2026-04-10 07:37 35.70202 139.89295 3238 ft 140 kts 212°
2026-04-10 07:37 35.69407 139.88611 3050 ft 139 kts 212°
2026-04-10 07:38 35.68628 139.87938 2876 ft 133 kts 212°
2026-04-10 07:38 35.67892 139.87304 2696 ft 128 kts 212°
2026-04-10 07:38 35.67164 139.86676 2520 ft 128 kts 210°
2026-04-10 07:38 35.66416 139.86032 2351 ft 134 kts 211°
2026-04-10 07:39 35.65644 139.85368 2166 ft 136 kts 210°
2026-04-10 07:39 35.64848 139.84683 1988 ft 143 kts 210°
2026-04-10 07:39 35.64044 139.83989 1797 ft 145 kts 211°
2026-04-10 07:39 35.63214 139.83275 1616 ft 145 kts 211°
2026-04-10 07:40 35.62414 139.82585 1420 ft 138 kts 211°
2026-04-10 07:40 35.61632 139.81913 1234 ft 137 kts 212°
2026-04-10 07:40 35.60847 139.81237 1051 ft 139 kts 213°
2026-04-10 07:40 35.60054 139.80556 869 ft 139 kts 213°
2026-04-10 07:41 35.59262 139.79875 685 ft 140 kts 213°
2026-04-10 07:41 35.58465 139.79190 499 ft 139 kts 213°
2026-04-10 07:41 35.57684 139.78519 318 ft 138 kts 211°
2026-04-10 07:41 35.56893 139.77847 135 ft 136 kts 214°
2026-04-10 07:42 35.56144 139.77195 33 ft 116 kts 214°
2026-04-10 07:42 35.55655 139.76773 27 ft 60 kts 215°
2026-04-10 07:42 35.55443 139.76592 27 ft 22 kts 214°
2026-04-10 07:42 35.55324 139.76504 24 ft 18 kts 202°
2026-04-10 07:43 35.55205 139.76467 25 ft 15 kts 190°
2026-04-10 07:43 35.55122 139.76449 26 ft 11 kts 185°
2026-04-10 07:43 35.55068 139.76492 25 ft 9 kts 114°
2026-04-10 07:43 35.55085 139.76560 25 ft 10 kts 40°
2026-04-10 07:44 35.55162 139.76620 25 ft 16 kts 36°
2026-04-10 07:44 35.55269 139.76712 25 ft 22 kts 36°
2026-04-10 07:44 35.55397 139.76822 24 ft 24 kts 34°
2026-04-10 07:44 35.55543 139.76948 25 ft 28 kts 35°
2026-04-10 07:45 35.55692 139.77075 25 ft 24 kts 35°
2026-04-10 07:45 35.55824 139.77189 23 ft 23 kts 35°
2026-04-10 07:45 35.55917 139.77273 28 ft 11 kts 48°
2026-04-10 07:45 35.55955 139.77349 27 ft 11 kts 60°
2026-04-10 07:46 35.56001 139.77446 24 ft 15 kts 60°
2026-04-10 07:46 35.56054 139.77560 23 ft 16 kts 60°
2026-04-10 07:46 35.56112 139.77683 25 ft 18 kts 60°
2026-04-10 07:46 35.56176 139.77817 29 ft 19 kts 59°
2026-04-10 07:47 35.56245 139.77962 25 ft 20 kts 60°
2026-04-10 07:47 35.56318 139.78116 26 ft 16 kts 59°
2026-04-10 07:47 35.56334 139.78208 27 ft 12 kts 121°
2026-04-10 07:47 35.56254 139.78272 24 ft 15 kts 150°
2026-04-10 07:48 35.56156 139.78342 24 ft 17 kts 150°
2026-04-10 07:48 35.56055 139.78414 24 ft 17 kts 150°
2026-04-10 07:48 35.55950 139.78488 23 ft 17 kts 150°
2026-04-10 07:48 35.55881 139.78536 22 ft 3 kts 153°
2026-04-10 07:49 35.55865 139.78535 22 ft 3 kts 195°
2026-04-10 07:49 35.55838 139.78498 21 ft 6 kts 239°
2026-04-10 07:49 35.55825 139.78471 22 ft 2 kts 240°
2026-04-10 07:49 35.55819 139.78458 22 ft 1 kts 240°
2026-04-10 07:50 35.55819 139.78456 22 ft 0 kts 240°
2026-04-10 07:50 35.55817 139.78454 22 ft 0 kts 240°
2026-04-10 07:50 35.55817 139.78453 22 ft 0 kts 240°